{"data":{"norad_id":55663,"intl_designator":"2023-021AM","name":"STARLINK-5473","alt_names":[],"object_type":"PAYLOAD","status":"ACTIVE","operator":null,"country":"US","launch_date":"2023-02-17","launch_site_code":"AFWTR","launch_vehicle":null,"mission":null,"orbit_class":"UNKNOWN","rcs_meters":null,"size_class":null,"mass_kg":null,"dimensions":null,"purposes":["comms"],"wikipedia_slug":null,"has_3d_model":false,"image_url":null,"decayed_at":null,"tle_current":{"epoch":"2026-05-24T22:06:19.336032Z","epoch_age_seconds":77988,"freshness":"FRESH","line1":"1 55663U 23021AM  26144.92105713  .00000498  00000+0  49543-4 0  9997","line2":"2 55663  69.9993 332.2331 0002768 264.3756  95.7087 14.98317170180696","mean_motion":14.9831717,"eccentricity":0.0002768,"inclination_deg":69.9993,"raan_deg":332.2331,"arg_perigee_deg":264.3756,"mean_anomaly_deg":95.7087,"bstar":4.9543e-5,"rev_number":18069,"period_min":96.107822084159,"perigee_km":570.17174256965,"apogee_km":574.01939131871,"semimajor_km":6950.2325669442,"source":"CELESTRAK","updated_at":"2026-05-25T13:38:17.874413Z"}}}